Hermiston, OR

8:42 PM PDT on August 20, 2017 (GMT -0700)
Hermiston Municipal

Weather History for KHRI - March, 2013

Change the Weather History Date:

Thursday, March 21, 2013

  Actual Average Record
Temperature  
Mean Temperature 44 °F 47 °F  
Max Temperature 52 °F 60 °F 78 °F (1934)
Min Temperature 35 °F 34 °F 19 °F (1913)
Degree Days  
Heating Degree Days 22    
Moisture  
Dew Point 26 °F    
Average Humidity 53    
Maximum Humidity 68    
Minimum Humidity 36    
Precipitation  
Precipitation 0.00 in 0.04 in 0.53 in (2012)
Month to date precipitation 0.75  
Year to date precipitation 3.03  
Sea Level Pressure  
Sea Level Pressure 30.10 in    
Wind  
Wind Speed 18 mph (WSW)    
Max Wind Speed 28 mph    
Max Gust Speed 38 mph    
Visibility 10 miles    
Events      
T = Trace of Precipitation, MM = Missing Value Source: NWS Daily Summary

Daily Weather History Graph

Daily Weather History Graph

Search for Another Location

Airport or City:

Trip Planner

Search our weather history database for the weather conditions in past years. The results will help you decide how hot, cold, wet, or windy it might be!

Date:

Astronomy

Mar. 21, 2013 Rise Set
Actual Time 6:57 AM PDT 7:11 PM PDT
Civil Twilight 6:27 AM PDT 7:41 PM PDT
Nautical Twilight 5:52 AM PDT 8:16 PM PDT
Astronomical Twilight 5:16 AM PDT 8:52 PM PDT
Moon 1:31 PM PDT 3:37 AM PDT
Length of Visible Light 13h 13m
Length of Day
12h 13m
Waxing Gibbous, 69% of the Moon is Illuminated
Mar 21
Waxing Gibbous
Mar 27
Full
Apr 2
Last Quarter
Apr 10
New
Apr 18
First Quarter

Hourly Weather History & Observations

Time (PDT) Temp. Windchill Dew Point Humidity Pressure Visibility Wind Dir Wind Speed Gust Speed Precip Events Conditions
12:53 AM 39.0 °F 30.3 °F 28.0 °F 65% 30.02 in 10.0 mi WSW 16.1 mph - N/A   Clear
1:53 AM 39.0 °F 29.6 °F 27.0 °F 62% 30.04 in 10.0 mi WSW 18.4 mph 31.1 mph N/A   Clear
2:53 AM 37.9 °F 28.2 °F 26.1 °F 62% 30.06 in 10.0 mi SW 18.4 mph 25.3 mph N/A   Clear
3:53 AM 37.9 °F 28.2 °F 24.1 °F 57% 30.07 in 10.0 mi SW 18.4 mph 26.5 mph N/A   Clear
4:53 AM 36.0 °F 27.1 °F 25.0 °F 64% 30.09 in 10.0 mi SW 13.8 mph 19.6 mph N/A   Partly Cloudy
5:53 AM 35.1 °F 26.9 °F 24.1 °F 64% 30.10 in 10.0 mi SSW 11.5 mph - N/A   Clear
6:53 AM 37.0 °F 28.1 °F 23.0 °F 57% 30.11 in 10.0 mi SW 15.0 mph - N/A   Scattered Clouds
7:53 AM 37.0 °F 28.9 °F 24.1 °F 59% 30.12 in 10.0 mi SSW 12.7 mph - N/A   Scattered Clouds
8:53 AM 42.1 °F 33.6 °F 26.1 °F 53% 30.13 in 10.0 mi SW 18.4 mph 31.1 mph N/A   Overcast
9:53 AM 43.0 °F 34.8 °F 28.0 °F 56% 30.14 in 10.0 mi SW 18.4 mph 26.5 mph N/A   Overcast
10:53 AM 46.9 °F - 26.1 °F 44% 30.15 in 10.0 mi WSW 17.3 mph 31.1 mph N/A   Overcast
11:53 AM 46.9 °F - 28.0 °F 48% 30.15 in 10.0 mi WSW 20.7 mph 33.4 mph N/A   Partly Cloudy
12:53 PM 50.0 °F - 27.0 °F 41% 30.14 in 10.0 mi WSW 25.3 mph 38.0 mph N/A   Clear
1:53 PM 51.1 °F - 27.0 °F 39% 30.11 in 10.0 mi West 26.5 mph 32.2 mph N/A   Partly Cloudy
2:53 PM 52.0 °F - 26.1 °F 37% 30.10 in 10.0 mi West 18.4 mph 31.1 mph N/A   Clear
3:53 PM 50.0 °F - 24.1 °F 36% 30.08 in 10.0 mi West 27.6 mph 32.2 mph N/A   Clear
4:53 PM 48.9 °F - 24.1 °F 38% 30.08 in 10.0 mi WSW 27.6 mph 33.4 mph N/A   Clear
5:53 PM 48.9 °F - 23.0 °F 36% 30.09 in 10.0 mi West 23.0 mph 32.2 mph N/A   Mostly Cloudy
6:53 PM 46.0 °F 38.5 °F 26.1 °F 46% 30.09 in 10.0 mi WSW 19.6 mph 28.8 mph N/A   Partly Cloudy
7:53 PM 44.1 °F 35.4 °F 27.0 °F 51% 30.11 in 10.0 mi WSW 21.9 mph 28.8 mph N/A   Mostly Cloudy
8:53 PM 41.0 °F 31.9 °F 28.0 °F 60% 30.13 in 10.0 mi WSW 19.6 mph 25.3 mph N/A   Scattered Clouds
9:53 PM 39.9 °F 30.2 °F 28.9 °F 65% 30.13 in 10.0 mi WSW 20.7 mph 28.8 mph N/A   Overcast
10:53 PM 39.0 °F 30.3 °F 28.9 °F 67% 30.14 in 10.0 mi SW 16.1 mph - N/A   Mostly Cloudy
11:53 PM 37.9 °F 28.5 °F 28.0 °F 68% 30.14 in 10.0 mi WSW 17.3 mph 25.3 mph N/A   Mostly Cloudy